Location: Unspecified
(47.5840°N, 122.3000°W)
Time: 10:33:46
(UTC+00:00)

Cosmos 1092 Rocket - Pass Details

Date: 09 December 2025
Orbit: 953 x 994 km, 83.0° (Epoch: 21 January)

Event Time Altitude Azimuth Distance (km) Brightness Sun altitude
Rises 14:10:00 0° 200° (SSW) 3,685 7.0 -15.3°
Reaches altitude 10° 14:12:34 10° 204° (SSW) 2,736 6.3 -14.9°
Maximum altitude 14:18:44 57° 283° (WNW) 1,140 4.0 -13.9°
Drops below altitude 10° 14:24:53 10° 2° (N) 2,726 6.2 -13.0°
Sets 14:27:27 0° 7° (N) 3,671 6.9 -12.6°
